Location: M�t�o Espelette
(43.3451°N, 1.4613°W)
Time: 19:50:48
(UTC+01:00)

ISS - Visible Passes

Search period start: 23 January 2019 00:00
Search period end: 02 February 2019 00:00
Orbit: 404 x 410 km, 51.6° (Epoch: 24 January)

Date Brightness Start Highest point End Pass type
(mag) Time Alt. Az. Time Alt. Az. Time Alt. Az.
23 Jan -1.7 18:36:33 10° S 18:38:31 15° SE 18:40:29 10° E visible
23 Jan -2.8 20:11:23 10° WSW 20:13:49 45° WSW 20:13:49 45° WSW visible
24 Jan -3.7 19:20:05 10° SW 19:23:20 63° SE 19:24:47 29° ENE visible
24 Jan -0.4 20:57:11 10° W 20:57:31 12° WNW 20:57:31 12° WNW visible
25 Jan -2.7 20:05:28 10° W 20:08:24 37° NNW 20:08:24 37° NNW visible
26 Jan -3.4 19:13:51 10° WSW 19:17:06 58° NNW 19:19:13 20° NE visible
26 Jan -0.5 20:51:32 10° WNW 20:51:56 12° WNW 20:51:56 12° WNW visible
27 Jan -2.1 19:59:44 10° WNW 20:02:32 25° NNW 20:02:42 25° N visible
28 Jan -2.5 19:07:56 10° W 19:10:58 32° NNW 19:13:25 14° NE visible
28 Jan -0.7 20:45:45 10° NW 20:46:08 12° NW 20:46:08 12° NW visible
29 Jan -1.9 19:54:00 10° WNW 19:56:32 20° N 19:56:49 20° N visible
30 Jan -2.0 19:02:11 10° WNW 19:04:53 23° NNW 19:07:29 11° NE visible
30 Jan -0.9 20:39:39 10° NW 20:40:12 13° NW 20:40:12 13° NW visible
31 Jan -1.9 19:48:04 10° NW 19:50:31 19° N 19:50:51 19° N visible
01 Feb -1.9 18:56:21 10° NW 18:58:49 19° N 19:01:19 10° NE visible
01 Feb -1.2 20:33:17 10° NW 20:34:14 16° NNW 20:34:14 16° NNW visible
